Flag for Azerbaijan Weather past 2 weeks in Sumqayit, Azerbaijan

Now
75 °F

Sunny.


Feels Like: 77 °F
Forecast: 73 / 86 °F
Wind: 14 mph from North

Location: Baku / Bine Airport

Current Time: Jul 22, 2014 at 11:07:44 PM

Latest Report: Jul 22, 2014 at 10:00 PM


Visibility: 10 mi

Pressure: 29.83 "Hg

Humidity: 65%

Dew point: 63 °F

Location of SumqayitLocation

Historic Weather in Sumqayit — Graph

°F

Sumqayit temperature yesterday

Maximum temperature yesterday: 86 °F (at 1:30 PM)
Minimum temperature yesterday: 73 °F (at 2:00 AM)
Average temperature yesterday: 79 °F

Past Weeks' High & Low Weather Summary

 TemperatureHumidityPressure
High95 °F (Jul 16, 2:30 PM)100% (Jul 12, 6:00 AM)29.89 "Hg (Jul 12, 6:00 AM)
Low70 °F (Jul 12, 6:00 AM)21% (Jul 18, 10:30 AM)29.59 "Hg (Jul 19, 3:00 PM)
Average81 °F60%29.77 "Hg
* Reported Jul 7 9:00 PM — Jul 22 9:30 PM, Sumqayit, Weather by CustomWeather, © 2014

Note: Actual official high and low records may vary slightly from our data, if they occured in-between our weather recording intervals... More about our weather records

Advertising

Sumqayit weather history for previous 24 hours

 ConditionsComfort  
Time TempWeatherWind HumidityBarometerVisibility
9:30 PM
Jul 22
75 °FSunny.14 mph65%29.83 "Hg10 mi
9:00 PM75 °FSunny.15 mph65%29.80 "Hg10 mi
8:30 PM77 °FSunny.18 mph61%29.80 "Hg10 mi
8:00 PM79 °FSunny.18 mph54%29.80 "Hg10 mi
7:30 PM79 °FSunny.20 mph54%29.80 "Hg10 mi
7:00 PM81 °FSunny.21 mph48%29.77 "Hg10 mi
6:30 PM82 °FSunny.22 mph45%29.77 "Hg10 mi
6:00 PM82 °FSunny.22 mph45%29.77 "Hg10 mi
5:30 PM82 °FSunny.23 mph45%29.77 "Hg10 mi
5:00 PM82 °FSunny.23 mph51%29.77 "Hg10 mi
4:30 PM82 °FSunny.23 mph51%29.77 "Hg10 mi
4:00 PM84 °FSunny.25 mph45%29.77 "Hg10 mi
3:30 PM84 °FSunny.25 mph43%29.77 "Hg10 mi
3:00 PM86 °FSunny.24 mph40%29.77 "Hg10 mi
2:30 PM84 °FSunny.25 mph43%29.77 "Hg10 mi
2:00 PM84 °FSunny.28 mph40%29.77 "Hg10 mi
1:30 PM84 °FSunny.28 mph43%29.77 "Hg10 mi
1:00 PM84 °FSunny.29 mph45%29.77 "Hg10 mi
12:30 PM84 °FSunny.29 mph48%29.77 "Hg10 mi
12:00 PM82 °FSunny.29 mph55%29.77 "Hg10 mi
11:30 AM81 °FPassing clouds.24 mph62%29.77 "HgN/A
11:00 AM81 °FScattered clouds.26 mph66%29.77 "HgN/A
10:30 AM81 °FScattered clouds.24 mph66%29.77 "HgN/A
10:00 AM81 °FPassing clouds.25 mph62%29.77 "HgN/A
9:30 AM81 °FPassing clouds.25 mph62%29.77 "HgN/A
9:00 AM79 °FSunny.24 mph61%29.77 "Hg10 mi
8:30 AM79 °FSunny.23 mph65%29.74 "Hg10 mi
8:00 AM77 °FSunny.22 mph69%29.74 "Hg10 mi
7:30 AM77 °FSunny.21 mph69%29.74 "Hg10 mi
7:00 AM75 °FClear.21 mph74%29.74 "Hg10 mi
6:30 AM75 °FClear.22 mph74%29.74 "Hg10 mi
6:00 AM75 °FClear.20 mph74%29.71 "Hg10 mi
5:30 AM75 °FClear.18 mph74%29.71 "Hg10 mi
5:00 AM75 °FClear.18 mph69%29.71 "Hg10 mi
4:30 AM75 °FClear.17 mph69%29.71 "Hg10 mi
4:00 AM75 °FClear.17 mph69%29.71 "Hg10 mi
3:30 AM75 °FClear.18 mph69%29.71 "Hg10 mi
3:00 AM75 °FClear.17 mph69%29.71 "Hg10 mi
2:30 AM75 °FClear.17 mph65%29.71 "Hg10 mi
2:00 AM75 °FClear.18 mph65%29.71 "Hg10 mi
1:30 AM75 °FClear.16 mph65%29.71 "Hg10 mi
1:00 AM75 °FClear.16 mph61%29.71 "Hg10 mi
12:30 AM75 °FClear.14 mph61%29.71 "Hg10 mi
12:00 AM75 °FClear.13 mph65%29.71 "Hg10 mi
11:30 PM
Jul 21
75 °FClear.13 mph69%29.71 "Hg10 mi
11:00 PM75 °FClear.13 mph69%29.71 "Hg10 mi
Weather by CustomWeather, © 2014

See weather overviewHow to use our weather pages